Flag for France Weather past 2 weeks in Poitiers, France

Now
46 °F

Clear.


Feels Like: 46 °F
Forecast: 40 / 59 °F
Wind: 2 mph from North

Location: Poitiers Airport

Current Time: Oct 23, 2014 at 12:30:12 AM

Latest Report: Oct 23, 2014 at 12:00 AM


Visibility: N/A

Pressure: 30.39 "Hg

Humidity: 87%

Dew point: 43 °F

Location of PoitiersLocation

Historic Weather in Poitiers — Graph

°F

Poitiers temperature yesterday

Maximum temperature yesterday: 59 °F (at 2:00 PM)
Minimum temperature yesterday: 45 °F (at 8:00 AM)
Average temperature yesterday: 51 °F

Past Weeks' High & Low Weather Summary

 TemperatureHumidityPressure
High77 °F (Oct 18, 2:30 PM)100% (Oct 9, 12:30 AM)30.45 "Hg (Oct 9, 12:30 AM)
Low45 °F (Oct 22, 8:00 AM)47% (Oct 12, 5:30 PM)29.56 "Hg (Oct 12, 2:00 PM)
Average60 °F83%29.91 "Hg
* Reported Oct 7 11:00 PM — Oct 22 11:30 PM, Poitiers, Weather by CustomWeather, © 2014

Note: Actual official high and low records may vary slightly from our data, if they occured in-between our weather recording intervals... More about our weather records

Advertising

Poitiers weather history for previous 24 hours

 ConditionsComfort  
Time TempWeatherWind HumidityBarometerVisibility
11:30 PM
Oct 22
46 °FClear.2 mph87%30.39 "HgN/A
11:00 PM46 °FClear.1 mph87%30.39 "HgN/A
10:30 PM46 °FClear.2 mph93%30.39 "HgN/A
10:00 PM46 °FClear.1 mph87%30.39 "HgN/A
9:30 PM46 °FClear.2 mph93%30.39 "HgN/A
9:00 PM48 °FPassing clouds.2 mph87%30.39 "HgN/A
8:30 PM48 °FPassing clouds.2 mph87%30.39 "HgN/A
8:00 PM50 °FPassing clouds.2 mph76%30.39 "HgN/A
7:30 PM52 °FPartly sunny.2 mph72%30.39 "HgN/A
7:00 PM54 °FClear.3 mph67%30.39 "HgN/A
6:30 PM55 °FPassing clouds.7 mph63%30.39 "HgN/A
6:00 PM57 °FBroken clouds.7 mph63%30.36 "HgN/A
5:30 PM57 °FMostly cloudy.9 mph59%30.36 "HgN/A
5:00 PM59 °FPartly sunny.9 mph55%30.39 "HgN/A
4:30 PM57 °FBroken clouds.10 mph55%30.39 "HgN/A
4:00 PM57 °FPartly sunny.10 mph55%30.39 "HgN/A
3:30 PM59 °FBroken clouds.12 mph55%30.39 "HgN/A
3:00 PM59 °FPartly sunny.12 mph55%30.39 "HgN/A
2:30 PM59 °FPartly sunny.10 mph55%30.42 "HgN/A
2:00 PM59 °FPartly sunny.13 mph59%30.42 "HgN/A
1:30 PM57 °FPassing clouds.10 mph59%30.42 "HgN/A
1:00 PM55 °FPartly sunny.12 mph63%30.42 "HgN/A
12:30 PM55 °FClear.9 mph63%30.42 "HgN/A
12:00 PM55 °FClear.9 mph63%30.45 "HgN/A
11:30 AM54 °FClear.8 mph72%30.45 "HgN/A
11:00 AM52 °FClear.8 mph77%30.45 "HgN/A
10:30 AM52 °FClear.7 mph72%30.45 "HgN/A
10:00 AM50 °FClear.8 mph76%30.45 "HgN/A
9:30 AM48 °FClear.7 mph82%30.42 "HgN/A
9:00 AM46 °FClear.7 mph82%30.42 "HgN/A
8:30 AM46 °FClear.5 mph82%30.42 "HgN/A
8:00 AM45 °FClear.6 mph87%30.39 "HgN/A
7:30 AM46 °FClear.6 mph82%30.39 "HgN/A
7:00 AM46 °FClear.7 mph82%30.39 "HgN/A
6:30 AM46 °FPartly cloudy.6 mph82%30.39 "HgN/A
6:00 AM46 °FPassing clouds.6 mph82%30.39 "HgN/A
5:30 AM46 °FPassing clouds.6 mph82%30.39 "HgN/A
5:00 AM46 °FClear.7 mph82%30.39 "HgN/A
4:30 AM46 °FClear.6 mph82%30.39 "HgN/A
4:00 AM46 °FClear.6 mph82%30.39 "HgN/A
3:30 AM46 °FClear.6 mph82%30.39 "HgN/A
3:00 AM48 °FClear.9 mph76%30.36 "HgN/A
2:30 AM48 °FClear.9 mph76%30.36 "HgN/A
2:00 AM50 °FClear.9 mph71%30.36 "HgN/A
1:30 AM50 °FClear.9 mph71%30.36 "HgN/A
1:00 AM50 °FClear.8 mph71%30.36 "HgN/A
12:30 AM50 °FClear.7 mph76%30.33 "HgN/A
12:00 AM50 °FClear.8 mph71%30.33 "HgN/A
Weather by CustomWeather, © 2014

See weather overviewHow to use our weather pages